Location: Central Coast
(33.3208°S, 151.2336°E)
Time: 23:40:27
(UTC+11:00)

Tiangong 2 - Pass Details

Date: 11 October 2017
Orbit: 387 x 389 km, 42.8° (Epoch: 18 December)

Event Time Altitude Azimuth Distance (km) Brightness Sun altitude
Rises 20:30:41 0° 235° (SW) 2,296 6.5 -18.1°
Reaches altitude 10° 20:33:06 10° 218° (SW) 1,437 4.8 -18.6°
Maximum altitude 20:35:40 21° 165° (SSE) 947 3.1 -19.1°
Enters shadow 20:36:06 21° 153° (SSE) 963 3.0 -19.2°
